Location: lozzo di cadore
(46.4899°N, 12.4508°E)
Time: 21:54:55
(UTC+02:00)

Envisat - Visible Passes

Search period start: 21 April 2024 00:00
Search period end: 01 May 2024 00:00
Orbit: 762 x 764 km, 98.3° (Epoch: 21 April)

Date Brightness Start Highest point End Pass type
(mag) Time Alt. Az. Time Alt. Az. Time Alt. Az.
21 Apr 4.8 03:42:02 10° NE 03:46:18 27° E 03:50:32 10° SSE visible
21 Apr 3.5 05:20:39 10° N 05:25:25 43° WNW 05:30:11 10° SW visible
22 Apr 5.6 03:06:26 10° ENE 03:08:32 12° E 03:10:38 10° ESE visible
22 Apr 3.0 04:43:06 10° NNE 04:48:13 89° WNW 04:53:17 10° SSW visible
23 Apr 4.0 04:05:57 10° NNE 04:10:47 43° E 04:15:36 10° S visible
24 Apr 5.1 03:29:23 10° NE 03:33:10 21° E 03:36:56 10° SE visible
24 Apr 3.2 05:07:31 10° N 05:12:29 55° WNW 05:17:24 10° SSW visible
25 Apr 3.2 04:30:06 10° NNE 04:35:12 72° ESE 04:40:15 10° S visible
26 Apr 4.4 03:53:07 10° NNE 03:57:42 33° E 04:02:16 10° SSE visible
26 Apr 3.8 05:32:06 10° N 05:36:39 34° WNW 05:41:11 10° SW visible
27 Apr 5.4 03:16:54 10° NE 03:20:01 16° E 03:23:05 10° SE visible
27 Apr 3.0 04:54:26 10° N 04:59:30 71° WNW 05:04:32 10° SSW visible
28 Apr 3.6 04:17:09 10° NNE 04:22:09 55° E 04:27:06 10° S visible
29 Apr 4.8 03:40:20 10° NE 03:44:35 26° E 03:48:47 10° SSE visible
29 Apr 3.5 05:18:55 10° N 05:23:43 44° WNW 05:28:29 10° SW visible
30 Apr 5.6 03:04:49 10° ENE 03:06:48 12° E 03:08:47 10° ESE visible
30 Apr 3.0 04:41:23 10° NNE 04:46:29 90° E 04:51:33 10° SSW visible
